Location: Beneden-Haastrecht
(52.0012°N, 4.7557°E)
Time: 05:36:15
(UTC+00:00)

FengYun 1-2 T - Pass Details

Date: 24 October 2020
Orbit: 846 x 882 km, 98.7° (Epoch: 25 November)

Event Time Altitude Azimuth Distance (km) Brightness Sun altitude
Rises 16:50:11 0° 151° (SSE) 3,472 7.2 -4.2°
Reaches altitude 10° 16:52:35 10° 149° (SSE) 2,536 6.5 -4.6°
Maximum altitude 16:58:10 64° 69° (ENE) 972 4.3 -5.4°
Drops below altitude 10° 17:03:45 10° 349° (N) 2,540 6.7 -6.3°
Sets 17:06:10 0° 347° (NNW) 3,478 7.4 -6.6°
